Location: Rowland
(34.5359°N, 79.2929°W)
Time: 19:42:37
(UTC+00:00)

Transit 2A Rocket - Pass Details

Date: 05 October 2022
Orbit: 589 x 911 km, 66.7° (Epoch: 03 December)

Event Time Altitude Azimuth Distance (km) Brightness Sun altitude
Rises 10:38:07 0° 228° (SW) 2,851 - -8.4°
Exits shadow 10:38:59 - 230° (SW) 2,516 7.2 -8.2°
Reaches altitude 10° 10:40:34 10° 238° (WSW) 1,928 6.6 -7.9°
Maximum altitude 10:44:25 32° 302° (WNW) 1,023 5.3 -7.1°
Drops below altitude 10° 10:48:16 10° 6° (N) 1,924 7.2 -6.3°
Sets 10:50:43 0° 17° (NNE) 2,844 8.2 -5.8°
